Regional Weather Roundup
Issued by NWS

Home | Current Version | Previous Version | Text Only | Print | Product List | Glossary Off
Versions: 1 2 3 4 5 6 7 8 9 10 11 12 13 14 15 16 17 18 19 20 21 22 23 24 25 26 27 28 29 30 31 32 33 34 35 36 37 38 39 40 41 42 43 44 45 46 47 48 49 50

000
ASUS43 KTOP 032059
RWRKS

WEATHER ROUNDUP FOR KANSAS
NATIONAL WEATHER SERVICE GOODLAND KS
400 PM CDT FRI JUL 03 2015

NOTE:  "FAIR" INDICATES FEW OR NO CLOUDS BELOW 12,000 FEET WITH NO
SIGNIFICANT WEATHER AND/OR OBSTRUCTIONS TO VISIBILITY.

KSZ001>006-013>018-027>032-041>047-032200-
NORTHWEST KANSAS

CITY           SKY/WX    TMP DP  RH WIND       PRES   REMARKS
GOODLAND       PTSUNNY   84  54  35 VRB3      30.05F
HAYS           MOSUNNY   82  59  44 N10G20    30.00F
HILL CITY      SUNNY     86  59  39 E7G20     30.00F
RUSSELL        MOSUNNY   84  58  40 VRB7G16   29.97F
$$

KSZ061>065-074>080-084>089-032200-
SOUTHWEST KANSAS

CITY           SKY/WX    TMP DP  RH WIND       PRES   REMARKS
DODGE CITY     SUNNY     86  58  38 E5        30.01F
ELKHART          N/A     89  57  33 E9          N/A
GARDEN CITY    MOSUNNY   87  58  37 VRB6      30.00F
GREAT BEND     PTSUNNY   82  61  47 N12       30.00S
LIBERAL        PTSUNNY   82  63  51 E17         N/A  THUNDER
$$

KSZ066>073-081>083-090>101-032200-
SOUTHEAST KANSAS

CITY           SKY/WX    TMP DP  RH WIND       PRES   REMARKS
CHANUTE        MOSUNNY   84  68  58 N6        29.91F
COFFEYVILLE    MOSUNNY   85  69  58 N16       29.88S
HUTCHINSON     MOSUNNY   85  63  47 N14G20    29.96F
MEDICINE LODGE   N/A     89  60  37 N8G20     29.94F
NEWTON         MOSUNNY   79  63  57 NE12      29.99S
PARSONS        PTSUNNY   80  73  79 N14       29.92R
WICHITA INTL   PTSUNNY   85  64  49 N13       29.95R
WICHITA JABRA  MOSUNNY   83  65  54 NE10G20   29.95S
WINFIELD       PTSUNNY   86  63  45 N10       29.94S
$$

KSZ007>012-019>026-033>040-048>060-102>105-032200-
NORTHEAST KANSAS

CITY           SKY/WX    TMP DP  RH WIND       PRES   REMARKS
CONCORDIA      MOSUNNY   79  64  60 NE7       29.99F
EMPORIA        CLOUDY    78  65  63 NE9G17    29.96S
LAWRENCE       SUNNY     80  60  50 VRB5      29.95F
MANHATTAN      MOSUNNY   80  64  58 N6        29.96F
OLATHE IND     SUNNY     80  60  50 N10       29.96S
OLATHE EXE     SUNNY     80  58  46 NE8       29.94F
SALINA         MOSUNNY   84  61  45 NE10      29.97F
TOPEKA BILLARD PTSUNNY   80  61  52 NE10      29.95F
TOPEKA FORBES  MOSUNNY   81  63  54 N7        29.95F
$$


USA.gov is the U.S. government's official web portal to all federal, state and local government web resources and services.